Weather History for MMIO - July, 2013

Change the Weather History Date:

Monday, July 8, 2013

  Actual Average Record
Temperature  
Mean Temperature 66 °F -  
Max Temperature 77 °F 82 °F 91 °F (2005)
Min Temperature 54 °F 65 °F 54 °F (2013)
Growing Degree Days 16 (Base 50)    
Moisture  
Dew Point 60 °F    
Average Humidity 76    
Maximum Humidity 100    
Minimum Humidity 41    
Precipitation  
Precipitation 0.39 in - - ()
Sea Level Pressure  
Sea Level Pressure 30.10 in    
Wind  
Wind Speed 5 mph ()    
Max Wind Speed 17 mph    
Max Gust Speed -    
Visibility 4.8 miles    
Events Fog , Rain , Thunderstorm    
Averages and records for this station are not official NWS values.
T = Trace of Precipitation, MM = Missing Value Source: Averaged Metar Reports

Daily Weather History Graph

Daily Weather History Graph

Search for Another Location

Airport or City:

Trip Planner

Search our weather history database for the weather conditions in past years. The results will help you decide how hot, cold, wet, or windy it might be!

Date:

Astronomy

Jul. 08, 2013 Rise Set
Actual Time 6:59 AM CDT 8:38 PM CDT
Civil Twilight 6:33 AM CDT 9:03 PM CDT
Nautical Twilight 6:02 AM CDT 9:34 PM CDT
Astronomical Twilight 5:30 AM CDT 10:07 PM CDT
Moon 7:21 AM CDT (7/8) 8:53 PM CDT (7/8)
Length of Visible Light 14h 30m
Length of Day
13h 39m
New Moon, 0% of the Moon is Illuminated
Jul 8
New Moon
Jul 15
First Quarter
Jul 22
Full
Jul 29
Last Quarter
Aug 6
New

Hourly Weather History & Observations

Time (CDT) Temp. Dew Point Humidity Pressure Visibility Wind Dir Wind Speed Gust Speed Precip Events Conditions
12:47 AM 60 °F 60 °F 100% 29.83 in 3 mi South 2.2 mph - -   Haze
4:00 AM 59 °F 59 °F 98% 29.86 in 2 mi South 4.5 mph - -   Overcast
6:00 AM 64.4 °F 50.0 °F 59% 30.14 in 6.0 mi Calm Calm - N/A   Scattered Clouds
6:40 AM 66.2 °F 57.2 °F 73% 30.15 in 5.0 mi Calm Calm - N/A   Scattered Clouds
6:47 AM 57 °F 57 °F 100% 29.94 in 2 mi SSW 2.2 mph - -   Haze
7:40 AM 66.2 °F 59.0 °F 78% 30.15 in 3.0 mi Calm Calm - N/A   Mostly Cloudy
8:40 AM 68.0 °F 62.6 °F 83% 30.20 in 3.0 mi Calm Calm - N/A   Mostly Cloudy
9:40 AM 69.8 °F 62.6 °F 78% 30.21 in 3.0 mi NNE 6.9 mph - N/A   Scattered Clouds
9:48 AM 66 °F 57 °F 66% 30.00 in 4 mi SE 4.5 mph - -   Haze
10:40 AM 73.4 °F 60.8 °F 65% 30.21 in 6.0 mi NNE 6.9 mph - N/A   Scattered Clouds
11:40 AM 75.2 °F 50.0 °F 41% 30.19 in 6.0 mi NNW 9.2 mph - N/A   Scattered Clouds
12:40 PM 77.0 °F 60.8 °F 57% 30.19 in 6.0 mi North 13.8 mph - N/A   Mostly Cloudy
12:50 PM 73 °F 61 °F 56% 29.98 in 6 mi SSE 8.9 mph - -   Haze
1:40 PM 77.0 °F 60.8 °F 57% 30.18 in 8.0 mi NNW 13.8 mph - N/A   Mostly Cloudy
2:40 PM 77.0 °F 60.8 °F 57% 30.15 in 8.0 mi NE 17.3 mph - N/A   Mostly Cloudy
3:40 PM 73.4 °F 62.6 °F 69% 30.15 in 6.0 mi NE 17.3 mph - N/A   Mostly Cloudy
3:50 PM 62 °F 61 °F 94% 29.93 in 4 mi SSE 4.5 mph - - Thunderstorm Light Thunderstorm
5:40 PM 73.4 °F 62.6 °F 69% 30.14 in 6.0 mi NE 17.3 mph - N/A   Mostly Cloudy
6:40 PM 71.6 °F 60.8 °F 69% 30.14 in 6.0 mi NNE 13.8 mph - N/A   Mostly Cloudy
6:50 PM 64 °F 61 °F 87% 29.89 in 6 mi SSE 2.2 mph - -   Haze
7:40 PM 71.6 °F 60.8 °F 69% 30.14 in 6.0 mi North 11.5 mph - N/A   Mostly Cloudy
8:40 PM 68.0 °F 60.8 °F 78% 30.16 in 6.0 mi NNE 11.5 mph - N/A   Overcast
9:40 PM 68.0 °F 62.6 °F 83% 30.19 in 5.0 mi NNE 9.2 mph - N/A Rain Light Rain
9:49 PM 61 °F 61 °F 99% 29.95 in 3 mi Calm Calm - - Fog Light Fog
10:40 PM 66.2 °F 64.4 °F 94% 30.20 in 3.0 mi Calm Calm - N/A Rain Rain
11:40 PM 64.4 °F 62.6 °F 94% 30.20 in 2.0 mi Calm Calm - N/A   Overcast